Regional Weather Roundup
Issued by NWS

Home | Current Version | Previous Version | Text Only | Print | Product List | Glossary Off
Versions: 1 2 3 4 5 6 7 8 9 10 11 12 13 14 15 16 17 18 19 20 21 22 23 24 25 26 27 28 29 30 31 32 33 34 35 36 37 38 39 40 41 42 43 44 45 46 47 48 49 50

808
ASUS43 KTOP 231308
RWRKS

WEATHER ROUNDUP FOR KANSAS
NATIONAL WEATHER SERVICE GOODLAND KS
800 AM CDT MON OCT 23 2017

NOTE:  "FAIR" INDICATES FEW OR NO CLOUDS BELOW 12,000 FEET WITH NO
SIGNIFICANT WEATHER AND/OR OBSTRUCTIONS TO VISIBILITY.

KSZ001>006-013>018-027>032-041>047-231400-
NORTHWEST KANSAS

CITY           SKY/WX    TMP DP  RH WIND       PRES   REMARKS
GOODLAND       CLOUDY    50  34  54 N21G33    30.21R
HAYS           CLOUDY    57  37  47 N20G33    30.09R
HILL CITY      CLOUDY    56  38  50 N17G31    30.15R
RUSSELL        CLOUDY    55  38  52 N18G29    30.06R
$$

KSZ061>065-074>080-084>089-231400-
SOUTHWEST KANSAS

CITY           SKY/WX    TMP DP  RH WIND       PRES   REMARKS
DODGE CITY     CLOUDY    57  32  38 N18G31    30.11R
ELKHART          N/A     49  32  52 NW6         N/A
GARDEN CITY    CLOUDY    56  34  43 N22       30.16R
GREAT BEND     CLOUDY    56  36  47 N20G26    30.06R
LIBERAL        CLEAR     46  34  62 N13       30.11R
PRATT          PTCLDY    53  33  46 N18G24    30.04R
$$

KSZ066>073-081>083-090>101-231400-
SOUTHEAST KANSAS

CITY           SKY/WX    TMP DP  RH WIND       PRES   REMARKS
CHANUTE        CLEAR     47  40  76 SW10      29.97S
COFFEYVILLE    CLEAR     44  42  93 S6        29.99S
HUTCHINSON     CLOUDY    46  37  71 NW9       30.00R
MEDICINE LODGE   N/A     41  35  79 NW8       30.02R
NEWTON         CLOUDY    47  40  76 W10       30.00R
PARSONS        CLEAR     44  40  85 S6        29.99S
WICHITA INTL   PTCLDY    45  43  93 S3        29.97S
WICHITA JABRA  CLOUDY    49  42  77 SW9       29.96S
WICHITA MCCONL CLOUDY    47  40  77 SW8       29.97S
WINFIELD       CLEAR     48  43  82 SW6       30.00S
$$

KSZ007>012-019>026-033>040-048>060-102>105-231400-
NORTHEAST KANSAS

CITY           SKY/WX    TMP DP  RH WIND       PRES   REMARKS
CONCORDIA      PTCLDY    52  38  58 NW8       30.01R
EMPORIA        CLEAR     51  39  63 W9        29.94R
LAWRENCE       CLEAR     42  39  89 E3        29.92F
MANHATTAN      PTCLDY    49  40  71 W6        29.96R
MARYSVILLE     CLOUDY    46  36  66 NW12      29.96R
OLATHE IND     CLEAR     43  39  86 S5        29.93F
OLATHE EXE     CLEAR     45  39  79 S8        29.93S
SALINA         PTCLDY    51  38  60 NW12      30.00R
TOPEKA BILLARD CLEAR     46  40  79 SW6       29.92S
TOPEKA FORBES  CLEAR     45  40  82 W6        29.91S
$$




USA.gov is the U.S. government's official web portal to all federal, state and local government web resources and services.